Location: Den�e
(47.3830°N, 0.6000°W)
Time: 05:46:42
(UTC+01:00)

ISS - Visible Passes

Search period start: 23 February 2018 00:00
Search period end: 05 March 2018 00:00
Orbit: 402 x 407 km, 51.6° (Epoch: 23 February)

Date Brightness Start Highest point End Pass type
(mag) Time Alt. Az. Time Alt. Az. Time Alt. Az.
25 Feb -0.8 07:15:20 10° S 07:17:14 15° SE 07:19:09 10° E visible
27 Feb -1.9 07:05:59 10° SSW 07:08:53 29° SE 07:11:46 10° E visible
28 Feb -1.2 06:14:30 10° S 06:16:46 18° SE 06:19:03 10° E visible
01 Mar -0.8 05:24:19 10° SE 05:24:43 10° SE 05:25:06 10° SE visible
01 Mar -3.3 06:57:22 10° SW 07:00:36 58° SSE 07:03:50 10° ENE visible
02 Mar -2.5 06:06:45 21° SSW 06:08:22 35° SE 06:11:24 10° ENE visible
03 Mar -1.5 05:16:44 20° SE 05:16:44 20° SE 05:18:44 10° E visible
03 Mar -3.8 06:49:24 12° WSW 06:52:23 78° NNW 06:55:40 10° ENE visible
04 Mar -3.7 05:59:15 46° SW 06:00:02 69° SSE 06:03:19 10° ENE visible
